Location: Izdebno
(52.6670°N, 16.2170°E)
Time: 10:49:58
(UTC+01:00)

Transit 2A - Pass Details

Date: 29 January 2023
Orbit: 591 x 964 km, 66.7° (Epoch: 21 March)

Event Time Altitude Azimuth Distance (km) Brightness Sun altitude
Rises 18:33:46 0° 209° (SSW) 2,992 9.6 -17.9°
Reaches altitude 10° 18:35:58 10° 207° (SSW) 2,131 8.7 -18.3°
Maximum altitude 18:40:47 70° 125° (SE) 787 5.8 -19.0°
Enters shadow 18:43:22 30° 49° (NE) 1,348 6.8 -19.4°
Drops below altitude 10° 18:46:12 10° 42° (NE) 2,390 - -19.8°
Sets 18:48:47 0° 41° (NE) 3,387 - -20.2°
